User: anonymous   Login
Location: ???????
(55.4362°N, 38.1183°E)
Time: 00:01:00
(UTC+00:00)
Language:

Cosmos 1603 - Orbit

View from above orbital plane
View from above orbital plane
View from above satellite
View from above satellite

Ground track
Ground track

The orbit data is extracted from the following two-line orbital elements,

1 15333U 84106A   21267.68894129  .00000224  00000-0  14214-3 0  9992
2 15333  71.0244  64.5315 0020104 345.7901  14.2653 14.14120993908625
Epoch (UTC): 24 September 2021 16:32:04
Eccentricity: 0.0020104
inclination: 71.0244°
perigee height: 831 km
apogee height: 860 km
right ascension of ascending node: 64.5315°
argument of perigee: 345.7901°
revolutions per day: 14.14120993
mean anomaly at epoch: 14.2653°
orbit number at epoch: 90862

The dashed part of the orbit path shows where the satellite is in the earth's shadow,  

DLR